Location: Doughton Park
(36.4224°N, 81.1835°W)
Time: 03:59:11
(UTC-05:00)

Amateur Radio Satellites - All Passes

Search period start: 25 February 2017 03:29
Search period end: 26 February 2017 03:29
Location: Doughton Park, 36.4224°N, 81.1835°W

Satellite Date Start Highest point End Downlink Frequencies (MHz)
Time Altitude Azimuth
RS-15 25 Feb 03:41:28 03:53:34 69° 247° (WSW) 04:05:06 29.354- 29.394
KKS-1 25 Feb 03:46:48 03:51:03 50° 73° (ENE) 03:55:21 437.445
AO-7 25 Feb 03:47:20 03:55:31 59° 103° (ESE) 04:03:38 .
SRMSAT 25 Feb 04:00:53 04:02:47 11° 192° (SSW) 04:04:42 437.500
CUBESAT XI-V 25 Feb 04:10:35 04:15:08 54° 74° (ENE) 04:19:40 437.345
STARS 25 Feb 04:22:01 04:26:15 54° 74° (ENE) 04:30:32 437.465
ITAMSAT 1 25 Feb 04:23:18 04:28:10 40° 290° (WNW) 04:33:01 435.822/435.867
AO-85 25 Feb 04:34:45 04:39:24 83° 302° (WNW) 04:43:43 145.980
M-CUBED/EXP-1 PRIME 25 Feb 04:58:15 05:01:32 63° 254° (WSW) 05:04:47 437.505
KKS-1 25 Feb 05:26:01 05:27:52 12° 268° (W) 05:29:44 437.445
CUTE-I 25 Feb 05:30:08 05:32:53 14° 92° (E) 05:35:37 437.470
AO-7 25 Feb 05:40:54 05:47:45 30° 301° (WNW) 05:54:34 .
CUBESAT XI-V 25 Feb 05:50:41 05:52:46 13° 268° (W) 05:54:52 437.345
KAITUO 1B 25 Feb 05:51:45 05:54:14 17° 94° (E) 05:56:41 145.475/437.950
XW-2F 25 Feb 05:55:27 05:58:30 23° 96° (E) 06:01:31 145.980 - 146.000
BEESAT 3 25 Feb 05:57:48 06:01:24 38° 114° (ESE) 06:05:05 437.485
RS-15 25 Feb 05:59:38 06:03:31 12° 266° (W) 06:07:22 29.354- 29.394
XW-2D 25 Feb 05:59:40 06:02:58 27° 96° (E) 06:06:14 145.860 - 145.880
STARS 25 Feb 06:01:33 06:02:53 11° 268° (W) 06:04:14 437.465
XW-2B 25 Feb 06:04:37 06:08:02 30° 97° (E) 06:11:24 145.730 - 145.750
STRAND 1 25 Feb 06:04:55 06:08:57 24° 67° (ENE) 06:12:59 437.568
DOVE 4 25 Feb 06:08:35 06:13:10 45° 99° (E) 06:17:58 437.250
XW-2C 25 Feb 06:13:05 06:16:42 40° 99° (E) 06:20:17 145.795 - 145.815
NUDT-PHONESAT 25 Feb 06:26:07 06:29:46 48° 99° (E) 06:33:23 437.300
LilacSat-2 25 Feb 06:29:25 06:33:16 72° 101° (E) 06:37:03 437.200
BEESAT 2 25 Feb 06:35:16 06:38:57 40° 114° (ESE) 06:42:41 435.950
HO-68 25 Feb 06:42:48 06:47:13 17° 92° (E) 06:51:37 435.675
Tancredo 1 25 Feb 06:48:53 06:50:39 14° 128° (SE) 06:52:24 437.200
CUTE 1.7 + AOD 2 25 Feb 06:52:29 06:53:56 12° 91° (E) 06:55:23 437.475
CUTE-I 25 Feb 07:07:59 07:13:19 63° 286° (WNW) 07:18:36 437.470
KAITUO 1B 25 Feb 07:25:04 07:28:14 26° 289° (WNW) 07:31:23 145.475/437.950
SO-50 25 Feb 07:25:53 07:30:20 60° 58° (ENE) 07:34:44 436.795
XW-2F 25 Feb 07:29:40 07:32:29 20° 290° (WNW) 07:35:18 145.980 - 146.000
XW-2D 25 Feb 07:34:25 07:36:56 17° 291° (WNW) 07:39:25 145.860 - 145.880
BEESAT 3 25 Feb 07:36:35 07:39:10 17° 311° (NW) 07:41:46 437.485
XW-2B 25 Feb 07:39:40 07:41:57 15° 292° (WNW) 07:44:12 145.730 - 145.750
AAUSAT CUBESAT 2 25 Feb 07:40:00 07:41:49 13° 92° (E) 07:43:38 437.432
STRAND 1 25 Feb 07:43:10 07:47:52 36° 262° (W) 07:52:37 437.568
XW-2A 25 Feb 07:43:26 07:46:54 87° 104° (ESE) 07:50:21 145.665 - 145.685
UWE-3 25 Feb 07:44:58 07:47:25 14° 91° (E) 07:49:51 435.000/436.395/437.385
DOVE 4 25 Feb 07:47:23 07:50:31 18° 292° (WNW) 07:53:47 437.250
SEEDS 25 Feb 07:48:14 07:52:04 35° 97° (E) 07:55:53 437.485
XW-2C 25 Feb 07:48:59 07:50:30 12° 293° (WNW) 07:51:59 145.795 - 145.815
ISS 25 Feb 07:57:00 08:00:17 83° 138° (SE) 08:03:35 437.550
ZACube-1 25 Feb 08:06:41 08:09:00 14° 92° (E) 08:11:17 437.345
O/OREOS (USA 219) 25 Feb 08:11:57 08:15:40 24° 61° (ENE) 08:19:22 437.305
BEESAT 2 25 Feb 08:14:19 08:16:53 16° 311° (NW) 08:19:29 435.950
Tancredo 1 25 Feb 08:23:27 08:26:37 47° 322° (NW) 08:29:47 437.200
CUTE 1.7 + AOD 2 25 Feb 08:25:57 08:30:01 48° 286° (WNW) 08:34:03 437.475
HO-68 25 Feb 08:28:23 08:35:32 75° 288° (WNW) 08:42:39 435.675
CUBEBUG 2 25 Feb 08:41:32 08:46:20 81° 281° (WNW) 08:51:01 437.445
PRISM 25 Feb 08:42:12 08:46:00 38° 72° (ENE) 08:49:47 437.425
UNISAT 6 25 Feb 08:49:22 08:52:33 19° 67° (ENE) 08:55:49 437.425
TIGRISAT 25 Feb 08:49:54 08:52:57 18° 67° (ENE) 08:56:03 435.000
YUBILEINY 25 Feb 08:50:37 08:53:45 12° 76° (ENE) 08:56:51 435.215
AO-73 25 Feb 08:53:37 08:57:58 43° 98° (E) 09:02:11 145.935
Oscar 11 25 Feb 09:00:38 09:04:47 44° 99° (E) 09:08:53 .
FO-29 25 Feb 09:03:24 09:08:46 23° 61° (ENE) 09:14:26 435.910
SO-50 25 Feb 09:08:35 09:10:14 12° 252° (WSW) 09:11:52 436.795
AAUSAT CUBESAT 2 25 Feb 09:13:35 09:17:27 42° 286° (WNW) 09:21:19 437.432
DELFI C3 25 Feb 09:13:50 09:16:25 17° 94° (E) 09:19:00 145.870
UWE-3 25 Feb 09:19:36 09:24:07 49° 286° (WNW) 09:28:32 435.000/436.395/437.385
SEEDS 25 Feb 09:24:52 09:27:27 16° 292° (WNW) 09:30:01 437.485
ISS 25 Feb 09:35:12 09:37:07 14° 335° (NNW) 09:39:02 437.550
ZACube-1 25 Feb 09:41:08 09:45:31 47° 286° (WNW) 09:49:48 437.345
O/OREOS (USA 219) 25 Feb 09:51:05 09:55:02 29° 257° (WSW) 09:58:59 437.305
AIST 2D 25 Feb 10:08:11 10:10:07 14° 69° (ENE) 10:12:05 435.315
POLYITAN 1 25 Feb 10:10:15 10:11:38 11° 65° (ENE) 10:13:01 437.675
NANOSAT C BR1 25 Feb 10:10:51 10:11:17 10° 64° (ENE) 10:11:42 145.865
QB50P2 25 Feb 10:12:31 10:14:32 13° 66° (ENE) 10:16:33 145.880/145.840
HO-68 25 Feb 10:19:11 10:22:03 13° 305° (NW) 10:24:55 435.675
PRISM 25 Feb 10:19:19 10:21:25 14° 267° (W) 10:23:31 437.425
UNISAT 6 25 Feb 10:24:52 10:28:58 35° 263° (W) 10:33:11 437.425
TIGRISAT 25 Feb 10:25:08 10:29:17 38° 262° (W) 10:33:34 435.000
AO-73 25 Feb 10:31:01 10:33:46 16° 294° (WNW) 10:36:29 145.935
Oscar 11 25 Feb 10:38:10 10:40:30 14° 294° (WNW) 10:42:49 .
YUBILEINY 25 Feb 10:40:11 10:48:59 78° 94° (E) 10:57:47 435.215
FO-29 25 Feb 10:46:00 10:52:56 69° 259° (W) 11:00:37 435.910
DELFI C3 25 Feb 10:47:49 10:51:13 28° 288° (WNW) 10:54:36 145.870
ESTCUBE 1 25 Feb 10:58:44 11:01:54 19° 94° (E) 11:05:02 437.505/2401.250
DUCHIFAT 1 25 Feb 11:14:35 11:18:39 53° 75° (ENE) 11:22:47 145.980
EO-79 25 Feb 11:25:09 11:29:21 88° 78° (ENE) 11:33:37 145.935-145.965
VELOX 1 25 Feb 11:26:15 11:27:23 11° 92° (E) 11:28:31 145.980
LO-87 25 Feb 11:32:09 11:35:45 71° 283° (WNW) 11:39:20 145.935 - 145.965
SPROUT 25 Feb 11:34:52 11:35:59 11° 91° (E) 11:37:06 437.525
AIST 2D 25 Feb 11:40:00 11:43:05 28° 263° (W) 11:46:12 435.315
NANOSAT C BR1 25 Feb 11:42:16 11:46:25 62° 259° (W) 11:50:37 145.865
POLYITAN 1 25 Feb 11:42:44 11:46:53 55° 260° (W) 11:51:05 437.675
QB50P2 25 Feb 11:45:49 11:49:52 47° 261° (W) 11:54:00 145.880/145.840
Oscar 19 25 Feb 11:48:59 11:51:46 15° 63° (ENE) 11:54:32 437.125/150
50 SAT 25 Feb 12:02:02 12:04:18 16° 95° (E) 12:06:34 437.505
BUGSAT 1 25 Feb 12:11:53 12:15:56 85° 74° (ENE) 12:20:03 437.445
Gurwin Techsat 1B 25 Feb 12:32:18 12:36:16 22° 66° (ENE) 12:40:15 435.225
ESTCUBE 1 25 Feb 12:34:42 12:38:45 34° 289° (WNW) 12:42:47 437.505/2401.250
YUBILEINY 25 Feb 12:40:37 12:46:41 20° 293° (WNW) 12:52:46 435.215
DX 1 25 Feb 12:51:27 12:55:39 45° 100° (E) 12:59:50 434.975-435.025
DUCHIFAT 1 25 Feb 12:53:47 12:54:37 10° 269° (W) 12:55:27 145.980
AO-7 25 Feb 12:57:03 13:00:14 13° 49° (NE) 13:03:24 .
VELOX 1 25 Feb 12:59:49 13:04:08 57° 286° (WNW) 13:08:28 145.980
UKube-1 25 Feb 13:03:37 13:07:45 44° 100° (E) 13:11:52 .
SPROUT 25 Feb 13:07:58 13:12:11 54° 286° (WNW) 13:16:22 437.525
AO-85 25 Feb 13:08:39 13:12:16 35° 55° (NE) 13:15:56 145.980
Tancredo 1 25 Feb 13:17:51 13:18:51 11° 22° (NNE) 13:19:49 437.200
Oscar 19 25 Feb 13:25:26 13:30:31 62° 258° (WSW) 13:35:37 437.125/150
50 SAT 25 Feb 13:34:37 13:37:22 22° 289° (WNW) 13:40:06 437.505
ITAMSAT 1 25 Feb 14:00:07 14:04:23 26° 67° (ENE) 14:08:40 435.822/435.867
Gurwin Techsat 1B 25 Feb 14:10:53 14:15:53 42° 261° (W) 14:20:56 435.225
BEESAT 3 25 Feb 14:18:11 14:20:01 13° 47° (NE) 14:21:49 437.485
ISS 25 Feb 14:27:02 14:30:03 32° 35° (NE) 14:33:02 437.550
DX 1 25 Feb 14:29:05 14:31:25 14° 294° (WNW) 14:33:45 434.975-435.025
UKube-1 25 Feb 14:41:01 14:43:23 15° 294° (WNW) 14:45:44 .
AO-7 25 Feb 14:43:08 14:51:22 64° 68° (ENE) 14:59:35 .
ITUPSAT 1 25 Feb 14:43:28 14:47:51 34° 98° (E) 14:52:12 437.325
BEESAT 25 Feb 14:49:53 14:54:26 41° 99° (E) 14:58:55 436.000
AO-85 25 Feb 14:49:58 14:52:21 16° 249° (WSW) 14:54:46 145.980
Tancredo 1 25 Feb 14:52:29 14:55:41 61° 39° (NE) 14:58:50 437.200
BEESAT 2 25 Feb 14:56:24 14:58:27 13° 47° (NE) 15:00:29 435.950
MOZHAYETS 4 25 Feb 15:10:29 15:14:12 24° 95° (E) 15:17:53
ITAMSAT 1 25 Feb 15:39:00 15:43:40 33° 262° (W) 15:48:22 435.822/435.867
KKS-1 25 Feb 15:42:20 15:43:55 12° 92° (E) 15:45:30 437.445
RS-15 25 Feb 15:51:20 16:00:11 25° 101° (E) 16:09:14 29.354- 29.394
BEESAT 3 25 Feb 15:54:01 15:57:59 59° 243° (WSW) 16:01:53 437.485
PCSat 25 Feb 15:54:05 15:59:17 51° 112° (ESE) 16:04:32 145.827
ISS 25 Feb 16:03:48 16:06:22 21° 230° (SW) 16:08:54 437.550
CUBESAT XI-V 25 Feb 16:10:52 16:13:40 16° 93° (E) 16:16:28 437.345
STARS 25 Feb 16:15:53 16:17:34 12° 92° (E) 16:19:14 437.465
ITUPSAT 1 25 Feb 16:21:47 16:25:26 22° 293° (WNW) 16:29:03 437.325
BEESAT 25 Feb 16:28:35 16:31:51 19° 294° (WNW) 16:35:06 436.000
Tancredo 1 25 Feb 16:31:03 16:31:32 10° 234° (SW) 16:32:01 437.200
BEESAT 2 25 Feb 16:32:35 16:36:34 56° 244° (WSW) 16:40:30 435.950
AO-7 25 Feb 16:37:59 16:44:32 25° 264° (W) 16:51:09 .
XW-2D 25 Feb 16:41:09 16:41:43 10° 66° (ENE) 16:42:18 145.860 - 145.880
XW-2B 25 Feb 16:45:26 16:46:44 11° 67° (ENE) 16:48:03 145.730 - 145.750
MOZHAYETS 4 25 Feb 16:47:22 16:51:18 28° 290° (WNW) 16:55:11
CUTE-I 25 Feb 16:49:14 16:52:55 19° 65° (ENE) 16:56:37 437.470
NO-84 25 Feb 16:52:41 16:55:48 86° 133° (SE) 16:59:13 435.350 FM
XW-2C 25 Feb 16:53:07 16:55:18 15° 68° (ENE) 16:57:30 145.795 - 145.815
NUDT-PHONESAT 25 Feb 17:04:10 17:06:29 16° 69° (ENE) 17:08:49 437.300
LilacSat-2 25 Feb 17:09:05 17:12:14 24° 71° (ENE) 17:15:24 437.200
DOVE 4 25 Feb 17:12:28 17:16:03 29° 71° (ENE) 17:19:39 437.250
HO-68 25 Feb 17:13:18 17:14:21 10° 53° (NE) 17:15:23 435.675
KKS-1 25 Feb 17:16:22 17:20:45 55° 286° (WNW) 17:25:07 437.445
PCSat 25 Feb 17:38:51 17:42:57 22° 309° (NW) 17:47:06 145.827
CUBESAT XI-V 25 Feb 17:46:53 17:51:13 42° 287° (WNW) 17:55:31 437.345
STARS 25 Feb 17:49:51 17:54:10 53° 287° (WNW) 17:58:29 437.465
RS-15 25 Feb 17:59:18 18:11:12 81° 300° (WNW) 18:23:38 29.354- 29.394
KAITUO 1B 25 Feb 18:01:38 18:05:27 88° 271° (W) 18:09:16 145.475/437.950
XW-2F 25 Feb 18:06:49 18:10:36 62° 259° (W) 18:14:26 145.980 - 146.000
XW-2D 25 Feb 18:11:42 18:15:26 49° 261° (W) 18:19:11 145.860 - 145.880
M-CUBED/EXP-1 PRIME 25 Feb 18:12:10 18:15:58 62° 289° (WNW) 18:20:04 437.505
XW-2A 25 Feb 18:13:14 18:15:36 18° 70° (ENE) 18:17:58 145.665 - 145.685
XW-2B 25 Feb 18:16:50 18:20:30 43° 261° (W) 18:24:12 145.730 - 145.750
XW-2C 25 Feb 18:25:42 18:29:11 33° 262° (W) 18:32:43 145.795 - 145.815
CUTE-I 25 Feb 18:27:24 18:32:32 49° 260° (W) 18:37:43 437.470
NO-84 25 Feb 18:32:34 18:34:00 12° 333° (NNW) 18:35:28 435.350 FM
NUDT-PHONESAT 25 Feb 18:36:51 18:40:09 29° 263° (W) 18:43:29 437.300
SEEDS 25 Feb 18:38:01 18:40:59 19° 69° (ENE) 18:43:57 437.485
LilacSat-2 25 Feb 18:43:34 18:46:26 20° 265° (W) 18:49:20 437.200
DOVE 4 25 Feb 18:50:57 18:53:47 18° 266° (W) 18:56:39 437.250
HO-68 25 Feb 18:53:36 19:00:40 64° 71° (ENE) 19:07:44 435.675
CUTE 1.7 + AOD 2 25 Feb 19:15:20 19:19:37 82° 75° (ENE) 19:23:55 437.475
CUBEBUG 2 25 Feb 19:36:39 19:40:59 60° 75° (ENE) 19:45:29 437.445
XW-2A 25 Feb 19:45:42 19:48:13 20° 265° (W) 19:50:46 145.665 - 145.685
AO-73 25 Feb 19:46:40 19:50:17 25° 69° (ENE) 19:53:58 145.935
Oscar 11 25 Feb 19:53:07 19:56:40 25° 70° (ENE) 20:00:14 .
STRAND 1 25 Feb 19:55:39 20:00:50 88° 283° (WNW) 20:05:58 437.568
AAUSAT CUBESAT 2 25 Feb 20:00:25 20:04:34 85° 77° (ENE) 20:08:45 437.432
SEEDS 25 Feb 20:12:38 20:16:25 31° 263° (W) 20:20:13 437.485
UWE-3 25 Feb 20:13:16 20:17:42 85° 259° (W) 20:22:17 435.000/436.395/437.385
RS-15 25 Feb 20:16:13 20:25:58 27° 326° (NNW) 20:35:57 29.354- 29.394
ZACube-1 25 Feb 20:33:31 20:37:57 86° 257° (WSW) 20:42:30 437.345
HO-68 25 Feb 20:43:36 20:48:47 21° 266° (W) 20:54:01 435.675
YUBILEINY 25 Feb 20:54:12 21:01:54 34° 73° (ENE) 21:09:31 435.215
CUBEBUG 2 25 Feb 21:17:07 21:18:00 10° 270° (W) 21:18:54 437.445
JUGNU 25 Feb 21:22:03 21:24:33 13° 171° (S) 21:27:04 437.505
AO-73 25 Feb 21:22:40 21:26:23 26° 265° (W) 21:30:11 145.935
Oscar 11 25 Feb 21:29:08 21:32:42 24° 264° (W) 21:36:16 .
DELFI C3 25 Feb 21:29:53 21:33:50 76° 258° (WSW) 21:37:48 145.870
SO-50 25 Feb 21:37:37 21:41:52 35° 114° (ESE) 21:46:06 436.795
ESTCUBE 1 25 Feb 21:56:51 21:59:06 14° 65° (ENE) 22:01:21 437.505/2401.250
FO-29 25 Feb 22:00:16 22:05:58 23° 90° (E) 22:11:13 435.910
PRISM 25 Feb 22:00:41 22:04:45 87° 289° (WNW) 22:08:50 437.425
LO-87 25 Feb 22:06:06 22:09:08 27° 73° (ENE) 22:12:11 145.935 - 145.965
UNISAT 6 25 Feb 22:18:31 22:23:10 58° 101° (E) 22:27:43 437.425
TIGRISAT 25 Feb 22:18:42 22:23:19 54° 100° (E) 22:27:50 435.000
O/OREOS (USA 219) 25 Feb 22:21:14 22:25:26 42° 105° (ESE) 22:29:40 437.305
RS-15 25 Feb 22:38:12 22:44:57 16° 3° (N) 22:51:41 29.354- 29.394
YUBILEINY 25 Feb 22:50:38 22:58:49 47° 271° (W) 23:06:58 435.215
DUCHIFAT 1 25 Feb 23:04:11 23:04:38 10° 91° (E) 23:05:06 145.980
AIST 2D 25 Feb 23:07:42 23:10:34 23° 96° (E) 23:13:25 435.315
JUGNU 25 Feb 23:09:31 23:12:44 15° 182° (S) 23:15:59 437.505
EO-79 25 Feb 23:13:21 23:16:12 17° 94° (E) 23:19:02 145.935-145.965
SO-50 25 Feb 23:18:34 23:22:24 24° 310° (NW) 23:26:10 436.795
NO-84 25 Feb 23:28:35 23:31:56 23° 36° (NE) 23:35:26 435.350 FM
NANOSAT C BR1 25 Feb 23:29:28 23:32:59 24° 96° (E) 23:36:28 145.865
POLYITAN 1 25 Feb 23:30:20 23:34:02 27° 97° (E) 23:37:42 437.675
ESTCUBE 1 25 Feb 23:31:02 23:35:26 52° 260° (W) 23:39:50 437.505/2401.250
QB50P2 25 Feb 23:33:11 23:37:03 32° 98° (E) 23:40:52 145.880/145.840
LO-87 25 Feb 23:40:44 23:42:37 14° 266° (W) 23:44:30 145.935 - 145.965
FO-29 25 Feb 23:44:01 23:51:27 60° 289° (WNW) 23:58:09 435.910
DX 1 25 Feb 23:44:40 23:48:23 29° 70° (ENE) 23:52:05 434.975-435.025
VELOX 1 25 Feb 23:54:05 23:58:27 89° 74° (ENE) 00:02:51 145.980
UKube-1 25 Feb 23:55:49 23:59:25 27° 70° (ENE) 00:03:03 .
TIGRISAT 25 Feb 23:57:00 23:59:29 14° 295° (WNW) 00:01:56 435.000
UNISAT 6 25 Feb 23:57:05 23:59:19 13° 295° (WNW) 00:01:30 437.425
BUGSAT 1 25 Feb 23:57:20 23:59:48 15° 93° (E) 00:02:17 437.445
SPROUT 25 Feb 23:58:18 00:02:32 79° 76° (ENE) 00:06:48 437.525
O/OREOS (USA 219) 26 Feb 00:02:08 00:05:01 17° 301° (WNW) 00:07:56 437.305
50 SAT 26 Feb 00:05:09 00:08:39 86° 76° (ENE) 00:12:09 437.505
SRMSAT 26 Feb 00:10:04 00:13:03 14° 173° (S) 00:16:02 437.500
DUCHIFAT 1 26 Feb 00:36:25 00:40:37 56° 286° (WNW) 00:44:46 145.980
AIST 2D 26 Feb 00:41:14 00:43:37 17° 290° (WNW) 00:45:59 435.315
PCSat 26 Feb 00:44:50 00:49:18 25° 53° (NE) 00:53:44 145.827
EO-79 26 Feb 00:48:08 00:52:01 34° 288° (WNW) 00:55:52 145.935-145.965
RS-15 26 Feb 00:52:56 01:03:28 31° 38° (NE) 01:13:39 29.354- 29.394
JUGNU 26 Feb 00:59:20 01:00:56 11° 192° (SSW) 01:02:32 437.505
NANOSAT C BR1 26 Feb 01:05:07 01:08:35 24° 290° (WNW) 01:12:02 145.865
NO-84 26 Feb 01:05:43 01:09:50 49° 231° (SW) 01:14:06 435.350 FM
POLYITAN 1 26 Feb 01:06:19 01:09:38 22° 291° (WNW) 01:12:55 437.675
QB50P2 26 Feb 01:09:33 01:12:35 19° 292° (WNW) 01:15:36 145.880/145.840
DX 1 26 Feb 01:21:15 01:24:32 21° 264° (W) 01:27:49 434.975-435.025
BUGSAT 1 26 Feb 01:31:20 01:35:17 39° 287° (WNW) 01:39:14 437.445
UKube-1 26 Feb 01:32:03 01:35:24 22° 264° (W) 01:38:46 .
FO-29 26 Feb 01:33:38 01:34:44 10° 308° (NW) 01:35:50 435.910
Oscar 19 26 Feb 01:39:28 01:44:30 57° 101° (E) 01:49:32 437.125/150
ITUPSAT 1 26 Feb 01:47:44 01:51:56 31° 70° (ENE) 01:56:10 437.325
BEESAT 26 Feb 01:53:43 01:58:05 36° 71° (ENE) 02:02:28 436.000
SRMSAT 26 Feb 01:58:03 02:01:25 15° 183° (S) 02:04:48 437.500
MOZHAYETS 4 26 Feb 02:10:23 02:13:32 18° 67° (ENE) 02:16:40
ITAMSAT 1 26 Feb 02:18:08 02:18:58 10° 90° (E) 02:19:48 435.822/435.867
PCSat 26 Feb 02:27:43 02:32:49 42° 250° (WSW) 02:37:52 145.827
Gurwin Techsat 1B 26 Feb 02:29:15 02:34:36 87° 283° (WNW) 02:39:55 435.225
AO-7 26 Feb 02:48:53 02:55:08 23° 95° (E) 03:01:20 .
CUBESAT XI-V 26 Feb 03:12:46 03:14:47 13° 65° (ENE) 03:16:48 437.345
Oscar 19 26 Feb 03:20:19 03:23:19 16° 296° (WNW) 03:26:19 437.125/150
AO-85 26 Feb 03:20:49 03:24:31 24° 112° (ESE) 03:28:01 145.980
